Вернуться в каталог

CZ-6A DEB

АктивенPO
NORAD 54944·DEBRIS·🇨🇳 China

Запущен Nov 11, 2022 с Taiyuan Satellite Launch Center

Loading…

Ближайшие Пролёты (ближайшие 24 часа)

TLE

СвежийSource: Space-Track

Эпоха: Sep 13, 2026, 23:08 UTC

1 54944U 22151SH  26256.96449240  .00000113  00000-0  21770-3 0  9991
2 54944  99.0347  83.7094 0509265 323.2863  33.4350 13.12971568183424

Отслеживайте CZ-6A DEB в реальном времени с AllMySat

Download on the App Store